Dewpoint
28 27 27 27 29 30 30 32 34 35 40 40 40 40 42 43 42 41 40 42 39 35 32 31 30 27 26 27 25 25 27 26 26 24 22 22 21 17 15 15 15 14 14 18 18 19 20 22 20 17 17 22 26 31
28 27 27 29 30 29 32 34 34 38 40 40 40 42 43 43 40 41 39 42 43 37 35 36 33 31 30 28 27 27 26 22 24 22 23 24 23 27 23 22 22 24 26 29 27 21 23 24 24 27 26 28 28 26
29 28 27 27 28 32 33 34 37 40 40 41 42 43 42 42 41 41 40 42 40 35 33 34 34 34 36 36 35 31 28 28 28 27 25 25 23 22 21 18 16 16 16 18 21 25 26 28 31 30 31 31 31 32
29 27 26 28 30 32 34 36 39 40 40 41 41 41 41 41 40 41 39 39 37 32 28 24 26 27 29 31 33 35 33 30 29 28 29 28 26 24 23 23 21 23 22 21 23 25 24 28 29 29 31 32 32 30
27 25 27 30 31 34 36 38 39 39 40 41 41 39 39 38 40 41 39 37 34 29 24 25 27 28 29 30 30 31 33 33 33 31 29 27 28 28 28 28 26 25 24 25 25 26 27 27 27 28 34 35 35 35
25 27 30 31 34 35 37 38 39 40 40 40 40 40 37 39 40 37 31 34 35 33 27 20 23 23 23 23 24 27 32 33 34 31 28 29 30 28 26 25 25 24 25 26 26 29 30 31 32 34 36 38 40 42
27 29 29 32 34 37 39 38 40 40 40 40 38 36 37 39 39 28 28 32 39 38 29 23 22 27 33 27 26 29 30 32 33 32 30 30 30 31 29 24 26 26 25 25 27 29 31 33 36 38 39 41 44 44
28 29 28 32 35 38 37 38 39 39 38 36 36 37 38 38 37 34 38 41 41 35 32 25 22 19 19 21 24 30 32 34 34 32 32 31 32 32 26 28 30 29 29 29 29 30 31 32 35 41 41 45 48 49
28 30 31 31 37 37 38 38 38 37 36 37 37 37 37 35 32 30 35 37 38 32 24 23 15 13 22 25 29 31 33 28 30 30 29 30 26 26 26 27 28 29 29 29 30 31 33 36 35 39 41 47 47 48
30 32 30 35 37 38 39 36 35 36 37 39 36 33 30 35 37 37 34 32 32 30 28 22 19 18 20 21 22 22 22 24 22 25 29 29 27 28 27 28 29 30 31 31 31 32 34 36 37 39 45 45 46 45
30 32 32 36 37 38 39 37 36 36 37 34 32 31 35 39 34 30 28 27 28 26 26 24 21 22 23 22 23 24 21 24 23 23 27 26 26 29 31 32 33 33 34 33 35 36 37 38 40 46 48 47 45 42
31 31 31 33 36 35 35 36 36 34 33 35 34 37 37 33 31 26 24 26 24 18 21 26 25 26 30 31 29 30 28 29 24 32 30 27 29 32 35 37 35 35 35 35 37 42 41 40 46 46 43 41 40 39
30 31 33 33 34 36 36 35 36 37 36 33 31 29 29 28 22 19 17 20 21 24 29 32 30 32 34 34 31 31 28 27 34 30 26 30 35 36 35 36 38 40 38 38 41 42 44 45 45 43 41 40 39 38
29 31 33 33 34 35 36 36 36 34 32 28 24 19 23 21 19 15 12 9 15 20 22 26 28 29 31 30 31 27 30 32 28 27 29 35 37 35 39 40 44 42 40 39 40 40 40 40 40 40 39 39 39 37
29 32 32 34 34 35 35 34 35 36 32 26 26 18 22 21 23 24 22 21 21 23 28 29 29 31 30 29 31 30 28 27 30 30 34 35 34 35 41 45 43 41 40 40 40 40 40 39 39 39 40 40 39 39
30 33 32 34 35 35 35 34 37 33 31 28 27 24 25 24 22 24 25 25 26 29 33 32 29 27 26 29 28 28 28 28 30 31 31 33 33 37 41 43 44 44 43 42 41 41 40 40 39 39 40 38 38 38
32 33 35 34 35 35 34 34 32 29 28 26 23 25 25 23 21 22 24 22 25 31 25 23 23 20 28 24 26 31 28 29 32 33 33 35 36 39 40 41 42 43 42 41 41 39 39 39 39 39 37 35 32 31
33 36 36 36 36 35 35 33 30 29 25 25 23 23 25 25 23 24 25 28 29 27 27 24 27 23 18 22 23 29 32 33 35 36 35 36 38 40 40 40 41 40 39 39 38 38 39 40 39 36 33 31 31 31
35 36 36 36 36 32 30 29 31 25 23 25 25 26 27 25 27 26 27 28 32 31 31 31 27 23 23 26 29 28 33 33 34 36 35 36 36 37 38 37 38 38 38 38 38 38 37 36 33 32 31 31 31 33
34 35 35 35 36 31 28 29 33 26 22 24 25 24 25 25 25 27 28 29 29 30 30 28 26 25 27 30 31 32 35 36 37 35 34 36 36 36 36 35 35 34 34 33 32 32 32 31 31 31 32 33 34 33
32 33 34 34 34 32 30 28 27 26 24 23 20 25 26 28 28 27 29 29 30 26 25 27 29 30 32 33 35 37 38 38 36 35 34 34 35 35 35 34 34 33 32 32 32 30 30 32 32 34 36 38 38 37
34 34 34 34 30 30 29 28 26 27 26 24 24 23 22 24 25 27 30 28 27 25 26 28 29 30 31 33 36 38 37 35 35 34 34 34 34 34 34 34 33 33 32 31 32 33 32 32 34 35 36 36 35 35
35 34 31 31 27 27 24 31 27 26 23 25 26 20 19 21 24 29 28 29 28 29 31 32 32 34 35 37 38 36 34 34 34 34 34 34 34 35 34 33 34 33 33 33 34 35 34 34 35 35 35 35 34 33
35 30 27 27 26 25 29 26 25 24 28 24 23 21 19 24 28 26 23 21 24 27 32 33 34 35 37 38 35 34 33 33 33 34 34 33 33 33 34 34 35 34 34 34 34 34 35 34 35 35 34 33 33 33
25 25 28 25 29 26 24 25 22 22 23 23 21 20 22 25 23 21 20 21 30 33 34 35 35 35 35 35 33 33 33 33 32 32 33 33 34 33 33 34 34 34 35 35 34 33 33 33 33 33 33 33 33 33
21 27 25 24 25 24 23 22 22 22 22 22 21 22 27 24 22 22 24 31 32 34 33 33 32 34 34 33 32 32 33 34 33 32 34 35 34 34 34 33 33 34 36 36 35 33 33 33 33 33 33 33 33 34
23 24 26 26 24 24 24 25 24 24 23 22 24 25 25 21 22 24 32 32 30 32 32 31 32 34 33 33 33 33 34 34 33 32 33 34 35 36 36 35 33 34 35 36 35 34 33 33 33 34 34 34 34 35
26 24 23 25 26 26 25 24 24 23 22 24 26 24 24 23 23 30 30 32 31 31 31 32 34 34 33 32 33 32 32 32 33 33 33 32 32 33 34 34 34 34 35 35 35 34 34 35 35 35 35 34 34 34
28 27 26 25 27 26 26 24 22 23 26 26 25 23 26 29 29 28 29 30 31 31 31 30 31 32 32 32 32 32 33 35 31 28 29 30 31 30 32 33 33 34 34 33 33 34 34 34 34 34 33 33 33 34
28 29 26 25 24 23 28 29 29 31 31 31 30 28 27 28 30 31 30 31 31 30 31 31 33 33 33 32 31 30 30 31 33 33 30 30 29 30 32 32 32 33 33 33 33 33 32 33 32 33 33 33 33 33
30 28 26 25 25 26 29 31 32 32 31 30 30 29 27 29 30 31 30 30 32 32 32 31 31 31 32 32 32 31 29 30 31 32 32 31 31 31 31 31 32 33 33 33 32 32 32 32 32 32 32 32 32 31
29 28 25 24 25 29 30 30 30 29 30 29 28 29 28 28 26 28 29 30 32 30 30 30 29 27 29 29 30 30 30 30 30 30 31 30 30 30 31 31 32 32 31 31 31 31 31 31 32 32 31 30 29 28
28 28 28 26 26 26 28 29 27 26 28 27 27 27 27 26 23 27 31 30 30 30 29 29 29 29 29 29 28 28 28 29 28 28 29 29 29 30 31 31 31 31 30 30 30 30 30 31 31 30 28 26 24 23
Wind_Speed
26 26 25 24 25 28 31 31 31 37 38 30 29 29 28 27 25 21 15 15 20 6 12 12 17 21 16 12 13 4 5 9 9 11 9 12 16 21 26 35 34 33 27 31 28 34 38 29 29 32 32 34 36 32
27 27 25 24 25 29 30 31 34 41 30 25 27 27 26 26 24 24 9 15 15 10 3 9 20 23 23 25 18 17 16 13 3 6 8 6 14 11 17 29 23 8 15 14 16 25 23 23 33 34 35 36 41 39
27 27 25 26 27 27 30 31 42 36 26 26 26 26 25 23 20 23 9 11 12 2 4 7 13 24 20 21 21 25 21 25 29 25 24 24 23 24 32 33 41 34 34 38 36 45 41 40 43 45 44 45 43 41
26 25 24 25 25 29 31 36 38 28 26 27 24 23 21 19 17 22 18 12 11 3 6 14 15 22 22 25 32 30 33 29 26 23 23 24 29 20 32 34 36 31 29 34 40 46 41 43 40 43 46 45 45 49
23 21 22 24 28 29 32 41 27 22 18 19 18 18 18 20 20 16 11 12 16 11 4 11 14 20 17 19 27 29 27 32 26 26 22 31 33 24 34 35 39 35 39 37 47 43 39 41 44 41 41 36 39 41
18 20 22 24 27 29 39 21 21 18 19 23 21 23 21 19 18 9 5 12 16 15 5 7 8 17 18 24 32 33 30 32 28 22 20 25 33 26 24 41 50 46 45 45 53 44 43 47 43 45 40 42 47 18
15 20 22 23 25 36 23 25 20 22 18 22 20 12 11 19 17 11 4 2 19 16 4 6 7 6 4 9 22 25 28 23 22 28 28 37 35 24 40 56 49 48 46 46 45 37 46 47 36 31 34 34 21 12
17 17 19 21 28 14 9 23 16 23 20 18 19 22 22 21 9 11 10 9 13 7 6 5 6 12 11 14 17 18 21 16 14 16 11 20 23 28 43 50 54 52 50 48 49 41 47 42 40 38 34 25 22 19
14 16 16 20 24 6 9 17 20 23 23 21 21 16 7 7 9 9 13 14 11 8 4 7 14 20 6 16 13 9 9 12 15 25 32 20 29 27 37 45 47 52 48 50 43 42 43 43 44 42 31 20 21 18
12 16 12 18 16 6 10 10 12 16 19 19 12 6 5 6 7 13 7 8 10 10 10 21 18 25 14 15 12 8 9 13 15 19 12 18 46 53 49 48 43 38 40 40 43 41 39 40 38 35 25 22 20 22
13 10 9 13 9 8 13 14 13 17 18 6 4 4 2 9 8 6 6 7 8 6 9 14 23 29 18 26 24 10 10 8 10 14 14 13 39 37 38 46 47 44 39 36 36 36 32 32 26 18 19 18 15 18
9 9 10 7 5 6 15 20 20 6 5 8 7 4 3 4 4 6 8 6 9 8 9 9 12 14 8 7 12 9 8 7 12 4 7 13 28 27 21 20 28 36 37 36 32 32 31 27 16 16 21 23 24 28
10 9 7 6 4 2 5 11 15 16 13 5 3 3 5 6 9 6 8 6 6 5 5 5 4 5 7 9 9 9 9 11 5 7 11 15 15 19 21 22 20 14 21 25 23 14 12 21 26 30 27 27 30 29
8 7 6 5 5 4 6 9 17 14 3 3 5 6 8 7 9 12 16 14 12 9 14 14 11 5 5 6 10 8 8 6 7 11 10 15 19 24 24 14 8 10 11 12 15 22 28 29 27 28 33 32 37 31
9 7 6 8 9 7 6 7 19 4 3 5 5 6 9 9 5 4 9 9 11 10 10 9 9 6 6 8 8 8 6 9 6 6 10 22 27 23 17 4 15 16 15 17 20 25 27 32 33 32 29 33 34 30
10 6 10 11 9 10 9 10 7 3 3 5 6 5 7 5 8 9 9 13 12 7 5 4 6 6 8 7 6 9 5 5 10 21 27 25 28 24 6 5 15 17 17 19 20 23 28 30 35 30 25 27 27 30
3 3 3 8 12 13 14 5 3 7 5 5 8 12 12 7 9 10 8 9 3 3 7 5 5 6 8 7 7 8 5 14 25 28 23 22 24 19 4 8 16 19 22 21 22 23 25 27 28 30 30 19 21 21
4 3 10 9 11 6 5 4 4 5 7 10 8 12 11 10 13 14 13 13 8 7 7 6 5 6 7 7 12 12 17 25 25 25 22 20 20 14 9 15 15 18 20 20 23 24 26 27 27 22 23 21 22 21
7 8 6 11 6 5 7 7 5 5 12 5 10 8 8 9 13 17 15 11 9 10 4 4 7 8 14 11 17 20 20 21 23 26 23 15 12 3 8 14 13 16 19 23 23 20 20 20 22 21 21 21 21 17
14 11 6 6 10 2 5 3 4 4 5 8 8 9 7 10 12 12 14 13 10 6 8 8 14 21 21 18 20 20 21 24 18 20 20 5 7 5 10 11 13 18 18 20 21 23 22 20 19 19 17 19 20 18
7 5 6 2 6 5 3 5 6 5 4 7 11 9 10 9 13 13 13 11 9 7 12 18 22 22 20 20 19 21 24 20 19 15 14 6 3 6 13 14 14 17 21 20 21 20 21 20 18 17 17 15 14 14
4 9 4 5 2 4 5 7 4 2 4 6 4 9 6 7 8 7 5 8 8 18 18 20 19 19 19 19 19 20 21 16 12 6 5 7 8 12 14 15 18 18 18 19 20 20 18 17 17 16 17 16 15 14
6 6 6 5 6 5 4 10 8 7 6 4 5 7 8 10 6 4 6 8 10 10 14 16 18 16 16 18 18 16 10 7 4 4 5 9 11 12 15 16 16 23 20 16 17 19 19 18 18 18 15 14 14 14
6 4 7 9 13 6 6 8 6 6 7 6 5 4 4 5 5 5 8 10 16 14 13 15 13 14 11 13 10 7 3 2 4 7 9 14 17 15 14 15 14 15 17 19 18 18 16 15 15 14 13 14 12 12
6 9 7 7 6 8 7 8 9 8 6 9 7 4 4 3 5 6 9 11 8 9 11 11 11 9 11 11 5 1 3 4 10 14 11 12 20 20 18 17 16 14 14 20 16 18 15 13 13 13 12 11 12 12
10 7 7 11 9 6 8 7 8 9 6 6 7 2 3 4 5 7 4 4 7 9 11 9 10 8 7 5 1 6 6 5 10 19 12 9 13 19 19 18 16 10 9 12 17 17 15 13 13 13 12 11 12 13
5 6 6 5 4 4 5 3 6 4 7 8 5 6 5 5 6 4 2 2 5 6 10 10 9 10 5 6 7 8 9 10 10 17 13 15 15 15 12 16 15 8 8 10 12 13 16 14 13 12 12 11 10 10
5 10 8 10 7 7 4 5 6 8 6 4 7 6 4 4 4 3 4 7 13 10 6 4 4 5 9 11 11 13 14 13 18 21 22 23 20 18 17 16 15 16 14 13 12 11 12 12 12 12 11 10 8 6
5 6 7 7 4 5 7 8 6 5 2 5 4 5 3 1 3 5 7 10 10 2 1 6 9 11 14 14 13 10 5 4 17 23 21 13 10 10 10 12 13 12 13 14 13 12 11 10 8 8 8 7 7 7
7 10 5 6 5 8 4 4 4 3 0 1 3 3 2 0 4 7 8 6 4 5 7 9 10 10 11 13 14 14 16 13 11 13 17 13 11 8 8 10 10 11 11 11 12 12 10 9 8 7 8 8 9 9
10 5 5 5 4 3 2 3 3 3 1 0 3 1 1 0 2 7 10 9 6 8 13 14 14 12 9 11 11 13 15 15 16 18 19 18 14 12 10 9 9 10 10 11 11 11 12 12 11 11 10 10 9 9
7 9 8 5 4 4 5 4 4 3 4 4 3 2 2 1 1 6 12 8 4 10 9 9 11 9 9 13 14 16 17 14 14 15 16 14 13 11 10 9 8 8 9 12 14 13 12 11 8 8 10 10 10 11
4 5 4 5 7 9 6 5 4 3 2 3 3 3 2 2 2 1 5 10 7 9 11 12 12 12 14 16 16 15 15 15 17 17 16 15 13 11 10 10 10 11 12 10 8 8 8 8 8 9 10 11 12 14
Wind_Direction
253 255 263 270 276 280 282 283 287 290 282 248 230 230 232 224 217 198 212 204 210 240 243 238 237 242 247 246 245 227 271 221 230 235 253 247 252 253 258 253 254 249 249 246 247 249 262 252 263 253 260 276 276 274
255 257 263 270 276 280 285 287 289 291 266 229 224 222 217 212 207 193 212 199 209 226 276 275 244 243 244 247 260 254 242 267 285 268 256 277 273 284 264 263 254 243 230 243 253 244 255 269 289 284 282 264 262 265
253 258 268 274 280 283 284 287 292 278 239 223 218 211 201 193 194 186 182 176 188 228 275 225 229 238 236 234 238 247 249 246 253 256 271 272 265 263 262 262 275 264 263 259 268 259 263 266 269 270 275 282 285 262
252 261 272 280 281 281 289 285 281 253 228 217 201 189 180 175 188 184 201 184 188 247 267 269 250 248 250 239 236 237 247 257 259 258 249 249 255 251 259 262 264 261 264 263 271 272 275 268 267 270 271 264 263 265
253 270 278 278 281 288 285 283 258 206 177 165 170 173 172 176 182 183 200 202 206 205 263 274 286 261 255 242 237 237 237 241 241 241 238 246 249 257 256 262 258 255 255 252 257 260 260 269 275 280 282 270 265 262
262 275 275 278 286 286 288 244 240 186 182 166 167 176 187 181 165 156 204 216 211 210 257 270 281 272 261 246 243 238 235 234 229 237 245 244 245 245 256 254 253 254 254 252 257 261 263 267 273 275 274 274 274 268
268 269 276 290 292 293 238 249 201 157 158 159 164 171 179 173 170 179 193 110 185 171 226 261 248 244 266 229 238 241 239 232 228 240 240 246 247 242 249 252 259 258 257 255 256 257 257 254 261 267 266 267 272 241
268 272 283 290 291 265 247 136 170 156 164 167 176 182 192 184 180 219 172 105 133 163 198 251 266 271 249 253 253 231 235 220 212 230 232 239 245 239 250 253 255 254 252 251 250 245 252 267 274 279 267 250 206 229
280 288 289 294 301 208 191 139 162 167 164 175 173 162 143 187 202 207 198 204 210 237 259 224 248 276 249 251 262 254 229 250 242 239 244 246 249 238 245 247 248 246 244 250 253 252 255 252 256 258 260 226 214 189
283 287 281 291 306 196 169 143 145 159 150 141 136 159 179 201 125 136 156 189 198 207 225 249 247 253 259 274 279 283 261 245 254 248 250 238 248 248 251 247 250 247 241 243 249 250 240 245 249 250 210 200 202 190
274 275 272 284 292 179 171 157 168 144 137 156 139 163 108 143 162 181 194 192 191 223 221 247 239 254 249 251 262 246 251 250 257 251 225 248 260 265 264 251 246 243 243 248 245 248 242 242 249 195 195 193 174 155
283 266 259 267 265 151 159 163 164 140 138 137 108 111 136 186 181 199 200 195 210 226 207 219 236 236 252 243 227 234 237 234 251 199 228 257 268 264 274 266 249 239 236 241 249 251 233 223 206 167 131 122 126 123
268 276 264 283 268 145 146 161 155 126 122 113 131 127 178 178 213 226 192 209 229 224 229 212 257 245 205 230 250 237 233 233 298 240 255 256 292 319 302 281 275 257 217 226 238 227 164 150 146 136 124 122 118 114
263 265 272 275 255 207 192 169 163 141 123 156 165 210 221 179 220 208 224 237 232 257 283 303 294 259 233 241 242 240 244 258 249 240 259 303 312 319 308 278 177 148 157 154 162 143 137 133 130 128 127 130 121 122
266 252 268 265 234 220 216 191 157 119 145 189 202 231 219 236 263 287 258 260 249 269 271 293 265 238 235 242 234 251 237 231 252 322 316 314 320 312 306 185 134 120 121 122 127 132 129 127 122 118 125 127 123 124
259 263 248 228 219 212 206 156 141 133 203 211 224 240 222 244 264 248 242 249 267 265 300 245 259 262 249 236 254 228 273 316 341 321 314 321 315 307 322 86 118 124 119 106 114 121 118 122 120 120 127 120 122 130
189 242 246 201 205 204 160 123 163 193 219 214 219 229 248 257 269 273 251 243 274 232 264 275 256 242 294 271 293 325 15 323 318 318 323 321 318 303 60 85 95 105 110 109 108 101 99 103 107 108 109 111 118 123
201 244 237 203 174 154 154 160 224 223 219 223 225 223 219 234 243 254 255 252 241 230 244 243 283 250 250 260 271 286 311 310 304 311 322 328 330 302 71 81 87 101 98 103 106 109 112 116 117 118 122 123 112 114
199 229 241 167 144 166 163 186 206 233 226 234 239 234 223 234 241 249 260 260 240 254 268 239 239 240 239 253 271 303 301 301 300 309 313 325 330 309 88 95 101 106 115 118 120 122 123 123 128 131 129 127 123 125
209 224 228 188 167 202 166 195 194 248 232 218 228 231 223 229 250 250 256 257 244 227 223 230 244 253 260 277 294 300 302 289 298 305 303 338 345 92 113 119 128 128 117 110 110 113 113 114 119 121 122 125 126 134
215 212 192 208 193 233 251 189 208 231 246 227 246 228 243 231 249 259 263 243 230 227 241 242 252 261 269 277 286 298 287 289 290 276 277 298 61 131 127 125 120 116 117 120 116 119 117 116 120 121 116 106 109 111
184 161 158 164 194 226 238 218 240 213 223 252 254 220 242 236 248 235 228 219 239 247 245 260 268 276 284 287 293 289 295 299 284 265 169 152 144 130 128 126 120 112 113 119 116 111 110 115 115 108 103 99 101 100
153 164 180 165 189 231 231 174 195 204 226 235 238 238 234 235 240 196 241 238 257 266 262 261 269 277 277 287 283 290 291 277 217 185 160 127 109 107 108 107 114 112 103 98 105 106 107 112 111 115 116 111 110 106
163 197 195 193 200 210 179 193 209 207 211 213 220 235 227 233 183 231 249 258 262 275 263 266 275 280 285 264 279 294 315 162 137 126 136 128 110 94 87 86 88 98 111 119 117 113 106 100 106 100 100 105 105 112
172 212 219 201 177 181 199 183 190 209 224 210 221 232 229 198 237 246 252 271 269 280 293 298 295 288 269 285 306 17 37 170 139 111 91 116 112 103 89 88 88 95 115 112 111 106 102 102 104 105 103 112 129 129
224 200 202 184 173 180 194 180 201 209 206 222 230 247 192 231 241 254 242 275 284 293 297 300 303 292 257 279 203 100 71 82 124 97 62 66 106 116 118 116 110 79 59 111 120 117 111 109 114 119 123 130 132 135
231 190 193 215 200 189 206 193 172 172 192 211 202 189 202 239 243 254 311 333 303 305 303 302 283 263 220 135 89 61 52 65 96 100 89 65 58 52 79 112 115 106 99 105 116 126 132 132 133 135 134 141 154 150
222 185 187 184 193 200 202 189 194 200 206 198 169 179 225 223 264 315 295 322 324 318 335 359 18 101 105 99 100 105 99 109 107 100 86 65 55 56 64 72 76 80 84 86 97 107 116 126 135 143 145 145 147 146
190 176 160 184 181 187 215 207 215 209 197 194 211 197 226 253 327 310 303 308 311 312 161 101 82 93 86 83 71 72 70 66 120 110 104 102 85 51 42 73 78 78 83 88 84 87 98 110 125 134 133 143 138 120
164 158 157 179 215 216 201 191 180 140 277 137 115 128 160 14 340 334 332 351 47 91 72 69 78 94 107 110 105 75 41 40 52 116 133 133 132 123 97 92 95 99 102 104 103 102 107 110 112 108 104 95 91 95
146 139 144 184 229 217 179 150 118 115 106 36 26 98 133 224 352 12 17 356 6 67 81 79 70 44 64 73 80 97 81 39 61 80 99 110 114 110 105 102 98 99 104 109 108 105 96 81 76 79 83 89 93 96
161 178 165 171 178 171 171 185 156 156 163 178 150 134 149 162 25 10 2 349 80 87 80 91 93 75 68 74 73 75 87 91 87 89 95 102 103 105 105 104 96 99 91 76 73 72 75 82 89 101 105 103 103 105
141 156 148 162 158 177 182 178 157 158 170 168 144 134 97 108 130 358 4 21 60 84 82 80 77 78 79 79 77 74 76 78 82 85 88 87 85 81 74 66 66 70 77 81 87 97 103 112 112 106 106 109 109 109